This is the latest recevied weather packets stored in our database for station/object K5NAN. If no packets are shown the sender has not sent any weather packets the latest 10 day(s).
| Time | Temp. | Humidity | Pressure | Rain* | Wind** | Luminosity | Snow |
|---|---|---|---|---|---|---|---|
| 1777647915 | 12.78° C | 81% | 1016.4 hPa | 0 mm | - | 110 W/m² | - |
| 1777647613 | 12.78° C | 81% | 1016.4 hPa | 0 mm | - | 88 W/m² | - |
| 1777647308 | 12.78° C | 82% | 1016.2 hPa | 0 mm | - | 90 W/m² | - |
| 1777647007 | 12.78° C | 82% | 1016 hPa | 0 mm | - | 82 W/m² | - |
| 1777646702 | 12.78° C | 82% | 1016 hPa | 0 mm | - | 89 W/m² | - |
| 1777646398 | 12.78° C | 82% | 1015.9 hPa | 0 mm | - | 124 W/m² | - |
| 1777646095 | 12.78° C | 82% | 1015.6 hPa | 0 mm | - | 97 W/m² | - |
| 1777645791 | 12.78° C | 82% | 1016 hPa | 0 mm | - | 76 W/m² | - |
| 1777645489 | 12.78° C | 82% | 1016 hPa | 0 mm | - | 77 W/m² | - |
| 1777645184 | 12.78° C | 82% | 1015.9 hPa | 0 mm | - | 85 W/m² | - |
| 1777644880 | 12.78° C | 81% | 1015.7 hPa | 0 mm | - | 89 W/m² | - |
| 1777644579 | 12.78° C | 81% | 1015.8 hPa | 0 mm | - | 90 W/m² | - |
| 1777644274 | 12.78° C | 81% | 1015.7 hPa | 0 mm | - | 88 W/m² | - |
| 1777643971 | 12.78° C | 81% | 1015.6 hPa | 0 mm | - | 86 W/m² | - |
| 1777643668 | 12.78° C | 81% | 1015.9 hPa | 0 mm | - | 108 W/m² | - |
| 1777643365 | 12.78° C | 82% | 1015.8 hPa | 0 mm | - | 84 W/m² | - |
| 1777643062 | 12.78° C | 83% | 1015.8 hPa | 0 mm | - | 69 W/m² | - |
| 1777642758 | 12.22° C | 83% | 1016 hPa | 0 mm | - | 67 W/m² | - |
| 1777642455 | 12.22° C | 85% | 1016.1 hPa | 0 mm | - | 59 W/m² | - |
| 1777642152 | 12.22° C | 85% | 1016.4 hPa | 0 mm | - | 39 W/m² | - |
| 1777641849 | 12.22° C | 85% | 1016.7 hPa | 0 mm | - | 23 W/m² | - |
| 1777641543 | 12.22° C | 85% | 1016.5 hPa | 0 mm | - | 25 W/m² | - |
| 1777641238 | 12.22° C | 85% | 1016.4 hPa | 0 mm | - | 25 W/m² | - |
| 1777640935 | 12.22° C | 85% | 1016.3 hPa | 0 mm | - | 23 W/m² | - |
| 1777640632 | 12.22° C | 85% | 1016 hPa | 0 mm | - | 26 W/m² | - |
* Rain latest hour (hover to see other rain measurements)
** Current wind speed in m/s (hover to see current wind gust speed)